Home > Weather > Sagamihara > Past weeks

Flag for Japan Weather for the Past 2 Weeks in Sagamihara, Japan

Now
40 °F

Overcast.


Feels Like: 40 °F
Forecast: 33 / 50 °F
Wind: 2 mph from Northwest

Location: Yokota Ab

Current Time: Feb 6, 2016 at 7:40:40 AM

Latest Report: Feb 6, 2016 at 6:58 AM


Visibility: 10 mi

Pressure: 29.96 "Hg

Humidity: 73%

Dew point: 32 °F

Location of SagamiharaLocation

Historic Weather in Sagamihara — Graph

°F

Sagamihara Temperature Yesterday

Maximum temperature yesterday: 54 °F (at 12:58 PM)
Minimum temperature yesterday: 31 °F (at 6:58 AM)
Average temperature yesterday: 43 °F

High & Low Weather Summary for the Past Weeks

 TemperatureHumidityPressure
High55 °F (Jan 28, 2:58 PM)97% (Jan 29, 11:58 PM)30.38 "Hg (Jan 29, 11:58 PM)
Low21 °F (Jan 25, 3:58 AM)13% (Jan 24, 1:58 PM)29.60 "Hg (Jan 24, 1:58 PM)
Average39 °F60%30.14 "Hg
* Reported Jan 22 5:58 AM — Feb 6 5:58 AM, Sagamihara, Weather by CustomWeather, © 2016

Note: Actual official high and low records may vary slightly from our data, if they occured in-between our weather recording intervals... More about our weather records

Advertising

Sagamihara Weather History for the Previous 24 Hours

 ConditionsComfort  
Time TempWeatherWind HumidityBarometerVisibility
5:58 AM
Sat, Feb 6
39 °FPassing clouds.3 mph78%29.96 "Hg10 mi
4:58 AM40 °FOvercast.6 mph77%29.95 "Hg10 mi
3:58 AM40 °FPassing clouds.7 mph76%29.95 "Hg10 mi
2:58 AM40 °FPassing clouds.7 mph78%29.96 "Hg10 mi
1:58 AM41 °FPartly cloudy.7 mphN/A29.97 "Hg10 mi
12:58 AM41 °FPassing clouds.3 mph73%29.98 "Hg10 mi
11:58 PM
Fri, Feb 5
41 °FPartly cloudy.6 mph70%30.01 "Hg10 mi
10:58 PM39 °FPassing clouds.7 mph67%30.02 "Hg10 mi
9:58 PM40 °FClear.3 mph62%30.01 "Hg10 mi
8:58 PM41 °FClear.3 mph60%30.04 "Hg10 mi
7:58 PM43 °FClear.No wind54%30.03 "Hg10 mi
6:58 PM45 °FClear.No wind46%30.02 "Hg10 mi
5:58 PM46 °FClear.8 mph43%30.02 "Hg10 mi
4:58 PM49 °FSunny.6 mph35%30.00 "Hg10 mi
3:58 PM52 °FSunny.9 mph35%29.98 "Hg10 mi
2:58 PM54 °FSunny.8 mph28%29.98 "Hg10 mi
1:58 PM53 °FSunny.7 mph28%29.97 "Hg10 mi
12:58 PM54 °FSunny.7 mph28%29.99 "Hg10 mi
11:58 AM52 °FSunny.5 mph31%30.01 "Hg10 mi
10:58 AM50 °FSunny.2 mph36%30.06 "Hg10 mi
9:58 AM47 °FSunny.2 mph42%30.08 "Hg10 mi
8:58 AM41 °FSunny.1 mph58%30.10 "Hg10 mi
7:58 AM36 °FSunny.1 mph66%30.10 "Hg10 mi
Weather by CustomWeather, © 2016

See weather overviewHow to use our weather pages